| time (UTC) | temp C | wind direction | speed KPH | gust KPH | rain 1hr cm | rain 24hr cm | rain mn cm | humidity % | barometer mb |
| 20260504011553 | 12 | 346 | 0.0 | 3.2 | 0.00 | 2.16 | 0.30 | 95 | 1013.2 |
| 20260504010057 | 12 | 1 | 1.6 | 8.0 | 0.00 | 2.16 | 0.30 | 95 | 1013.3 |
| 20260504004603 | 12 | 0 | 0.0 | 4.8 | 0.00 | 2.16 | 0.30 | 95 | 1013.2 |
| 20260504003054 | 12 | 32 | 1.6 | 6.4 | 0.00 | 2.16 | 0.30 | 95 | 1013.3 |
| 20260504001554 | 12 | 193 | 1.6 | 6.4 | 0.00 | 2.16 | 0.30 | 95 | 1013.4 |
| 20260504000055 | 12 | 352 | 1.6 | 8.0 | 0.00 | 2.16 | 0.30 | 95 | 1013.6 |
| 20260503234552 | 12 | 306 | 1.6 | 4.8 | 0.00 | 2.16 | 0.30 | 95 | 1013.6 |
| 20260503233055 | 12 | 209 | 1.6 | 4.8 | 0.08 | 2.16 | 0.30 | 95 | 1013.7 |
| 20260503231557 | 12 | 307 | 3.2 | 9.7 | 0.18 | 2.16 | 0.30 | 95 | 1013.7 |
| 20260503230054 | 13 | 176 | 1.6 | 6.4 | 0.30 | 2.16 | 0.30 | 95 | 1013.8 |
| 20260503224554 | 13 | 359 | 3.2 | 16.1 | 0.36 | 2.16 | 0.30 | 95 | 1013.8 |
| 20260503223057 | 13 | 271 | 1.6 | 6.4 | 0.33 | 2.06 | 0.20 | 95 | 1013.8 |
| 20260503221555 | 13 | 354 | 3.2 | 11.3 | 0.25 | 1.96 | 0.10 | 95 | 1013.5 |
| 20260503214557 | 13 | 338 | 6.4 | 12.9 | 0.36 | 1.78 | 1.78 | 94 | 1013.4 |
| 20260503213054 | 13 | 300 | 3.2 | 16.1 | 0.28 | 1.73 | 1.73 | 95 | 1013.4 |
| 20260503211603 | 13 | 295 | 3.2 | 8.0 | 0.28 | 1.70 | 1.70 | 95 | 1013.2 |
| 20260503210054 | 13 | 49 | 1.6 | 8.0 | 0.23 | 1.68 | 1.68 | 94 | 1013.1 |
| 20260503204551 | 14 | 6 | 1.6 | 4.8 | 0.00 | 1.42 | 1.42 | 95 | 1012.9 |
| 20260503203053 | 14 | 0 | 0.0 | 0.0 | 0.00 | 1.42 | 1.42 | 95 | 1012.2 |
| 20260503201556 | 14 | 0 | 0.0 | 0.0 | 0.00 | 1.42 | 1.42 | 95 | 1012.0 |
| 20260503200053 | 14 | 0 | 0.0 | 0.0 | 0.00 | 1.42 | 1.42 | 95 | 1012.0 |
| 20260503194557 | 14 | 0 | 0.0 | 0.0 | 0.00 | 1.42 | 1.42 | 95 | 1011.7 |
| 20260503193056 | 14 | 0 | 0.0 | 0.0 | 0.13 | 1.42 | 1.42 | 95 | 1011.7 |
| 20260503191554 | 14 | 0 | 0.0 | 0.0 | 0.25 | 1.42 | 1.42 | 94 | 1012.0 |
| 20260503190055 | 14 | 0 | 0.0 | 1.6 | 0.28 | 1.42 | 1.42 | 94 | 1011.7 |
| 20260503184606 | 15 | 0 | 0.0 | 0.0 | 0.25 | 1.40 | 1.40 | 95 | 1011.7 |
| 20260503183057 | 15 | 0 | 0.0 | 4.8 | 0.13 | 1.30 | 1.30 | 94 | 1011.8 |
| 20260503181552 | 15 | 356 | 0.0 | 3.2 | 0.00 | 1.17 | 1.17 | 94 | 1011.9 |
| 20260503180054 | 15 | 0 | 0.0 | 4.8 | 0.00 | 1.14 | 1.14 | 94 | 1011.7 |
| 20260503174607 | 15 | 176 | 1.6 | 6.4 | 0.20 | 1.22 | 1.14 | 93 | 1011.5 |
| 20260503173101 | 15 | 0 | 0.0 | 6.4 | 0.41 | 1.22 | 1.14 | 94 | 1011.1 |
| 20260503171552 | 15 | 0 | 0.0 | 9.7 | 0.46 | 1.22 | 1.14 | 94 | 1011.2 |
| 20260503150103 | 18 | 62 | 1.6 | 4.8 | 0.00 | 0.74 | 0.64 | 92 | 1010.3 |
| 20260503100107 | 16 | 312 | 3.2 | 8.0 | 0.00 | 1.40 | 0.00 | 93 | 1012.9 |
| 20260503081554 | 14 | 195 | 0.0 | 3.2 | 0.00 | 1.40 | 0.00 | 94 | 1013.0 |
| 20260503071612 | 13 | 0 | 0.0 | 3.2 | 0.00 | 1.40 | 0.00 | 96 | 1013.0 |
| 20260503054553 | 11 | 0 | 0.0 | 1.6 | 0.00 | 1.40 | 0.00 | 95 | 1013.0 |
| 20260503053054 | 11 | 0 | 0.0 | 1.6 | 0.00 | 1.40 | 0.00 | 95 | 1013.0 |
| 20260503051552 | 11 | 0 | 0.0 | 1.6 | 0.00 | 1.40 | 0.00 | 95 | 1013.0 |
| 20260503050101 | 11 | 0 | 0.0 | 1.6 | 0.00 | 1.40 | 0.00 | 95 | 1012.8 |
| 20260503044559 | 11 | 0 | 0.0 | 1.6 | 0.00 | 1.40 | 0.00 | 95 | 1013.0 |
| 20260503043054 | 11 | 0 | 0.0 | 1.6 | 0.00 | 1.40 | 0.00 | 95 | 1012.9 |
| 20260503041552 | 11 | 82 | 0.0 | 1.6 | 0.00 | 1.40 | 0.00 | 95 | 1012.8 |
| 20260503040049 | 12 | 117 | 0.0 | 1.6 | 0.00 | 1.40 | 0.00 | 95 | 1012.9 |
| 20260503034603 | 12 | 0 | 0.0 | 1.6 | 0.00 | 1.40 | 0.00 | 95 | 1012.8 |
| 20260503033056 | 12 | 0 | 0.0 | 0.0 | 0.00 | 1.40 | 0.00 | 95 | 1013.0 |
| 20260503031553 | 12 | 0 | 0.0 | 1.6 | 0.00 | 1.40 | 0.00 | 95 | 1013.0 |
| 20260503030051 | 12 | 0 | 0.0 | 0.0 | 0.00 | 1.40 | 0.00 | 95 | 1013.1 |
| 20260503024551 | 12 | 0 | 0.0 | 1.6 | 0.00 | 1.40 | 0.00 | 95 | 1013.3 |
| 20260503023057 | 12 | 0 | 0.0 | 0.0 | 0.00 | 1.40 | 0.00 | 95 | 1013.3 |
| 20260503021549 | 12 | 0 | 0.0 | 0.0 | 0.00 | 1.40 | 0.00 | 95 | 1013.5 |
| 20260503020055 | 12 | 0 | 0.0 | 0.0 | 0.00 | 1.40 | 0.00 | 95 | 1013.5 |
| 20260503014603 | 12 | 0 | 0.0 | 1.6 | 0.00 | 1.40 | 0.00 | 95 | 1013.7 |
| 20260503013053 | 13 | 0 | 0.0 | 1.6 | 0.00 | 1.37 | 0.00 | 95 | 1013.7 |